| time (UTC) | temp C | wind direction | speed KPH | gust KPH | rain 1hr cm | rain 24hr cm | rain mn cm | humidity % | barometer mb |
| 20260505212528 | 5 | 323 | 4.8 | 17.7 | 0.00 | 0.00 | 0.00 | 48 | 1011.9 |
| 20260505212031 | 5 | 326 | 4.8 | 17.7 | 0.00 | 0.00 | 0.00 | 49 | 1011.8 |
| 20260505211552 | 5 | 330 | 4.8 | 12.9 | 0.00 | 0.00 | 0.00 | 48 | 1011.7 |
| 20260505211028 | 5 | 30 | 1.6 | 16.1 | 0.00 | 0.00 | 0.00 | 50 | 1011.7 |
| 20260505210532 | 5 | 0 | 4.8 | 16.1 | 0.00 | 0.00 | 0.00 | 50 | 1011.7 |
| 20260505210047 | 5 | 288 | 3.2 | 16.1 | 0.00 | 0.00 | 0.00 | 48 | 1011.7 |
| 20260505205529 | 5 | 268 | 4.8 | 14.5 | 0.00 | 0.00 | 0.00 | 49 | 1011.7 |
| 20260505205028 | 5 | 264 | 4.8 | 16.1 | 0.00 | 0.00 | 0.00 | 49 | 1011.7 |
| 20260505204546 | 5 | 274 | 3.2 | 16.1 | 0.00 | 0.00 | 0.00 | 49 | 1011.8 |
| 20260505204028 | 5 | 293 | 4.8 | 17.7 | 0.00 | 0.00 | 0.00 | 48 | 1011.7 |
| 20260505203528 | 5 | 329 | 4.8 | 17.7 | 0.00 | 0.00 | 0.00 | 48 | 1011.8 |
| 20260505203100 | 5 | 273 | 8.0 | 17.7 | 0.00 | 0.00 | 0.00 | 48 | 1011.7 |
| 20260505202528 | 5 | 245 | 4.8 | 12.9 | 0.00 | 0.00 | 0.00 | 48 | 1011.7 |
| 20260505202027 | 5 | 321 | 6.4 | 14.5 | 0.00 | 0.00 | 0.00 | 48 | 1011.8 |
| 20260505201540 | 5 | 277 | 6.4 | 17.7 | 0.00 | 0.00 | 0.00 | 47 | 1011.8 |
| 20260505201028 | 5 | 307 | 6.4 | 17.7 | 0.00 | 0.00 | 0.00 | 47 | 1011.7 |
| 20260505200528 | 6 | 282 | 3.2 | 16.1 | 0.00 | 0.00 | 0.00 | 47 | 1011.7 |
| 20260505200041 | 6 | 252 | 3.2 | 16.1 | 0.00 | 0.00 | 0.00 | 47 | 1011.8 |
| 20260505195528 | 5 | 226 | 6.4 | 20.9 | 0.00 | 0.00 | 0.00 | 47 | 1011.7 |
| 20260505195031 | 6 | 274 | 8.0 | 20.9 | 0.00 | 0.00 | 0.00 | 46 | 1011.8 |
| 20260505194547 | 6 | 340 | 4.8 | 24.1 | 0.00 | 0.00 | 0.00 | 46 | 1011.7 |
| 20260505194029 | 6 | 312 | 9.7 | 24.1 | 0.00 | 0.00 | 0.00 | 46 | 1011.8 |
| 20260505193531 | 5 | 297 | 8.0 | 17.7 | 0.00 | 0.00 | 0.00 | 46 | 1011.7 |
| 20260505193045 | 6 | 314 | 6.4 | 14.5 | 0.00 | 0.00 | 0.00 | 47 | 1011.8 |
| 20260505192528 | 5 | 323 | 4.8 | 14.5 | 0.00 | 0.00 | 0.00 | 47 | 1011.6 |
| 20260505192028 | 5 | 283 | 6.4 | 14.5 | 0.00 | 0.00 | 0.00 | 46 | 1011.6 |
| 20260505191550 | 5 | 261 | 4.8 | 14.5 | 0.00 | 0.00 | 0.00 | 47 | 1011.6 |
| 20260505191029 | 6 | 297 | 3.2 | 14.5 | 0.00 | 0.00 | 0.00 | 47 | 1011.6 |
| 20260505190529 | 5 | 63 | 4.8 | 11.3 | 0.00 | 0.00 | 0.00 | 46 | 1011.6 |
| 20260505190044 | 5 | 300 | 6.4 | 12.9 | 0.00 | 0.00 | 0.00 | 46 | 1011.5 |
| 20260505185528 | 5 | 276 | 3.2 | 12.9 | 0.00 | 0.00 | 0.00 | 47 | 1011.5 |
| 20260505185026 | 5 | 293 | 4.8 | 14.5 | 0.00 | 0.00 | 0.00 | 47 | 1011.4 |
| 20260505184548 | 5 | 342 | 4.8 | 14.5 | 0.00 | 0.00 | 0.00 | 48 | 1011.5 |
| 20260505184026 | 5 | 15 | 4.8 | 12.9 | 0.00 | 0.00 | 0.00 | 48 | 1011.4 |
| 20260505183525 | 5 | 330 | 6.4 | 16.1 | 0.00 | 0.00 | 0.00 | 47 | 1011.4 |
| 20260505183048 | 5 | 319 | 3.2 | 16.1 | 0.00 | 0.00 | 0.00 | 48 | 1011.3 |
| 20260505182531 | 5 | 340 | 4.8 | 12.9 | 0.00 | 0.00 | 0.00 | 47 | 1011.2 |
| 20260505182028 | 5 | 2 | 3.2 | 12.9 | 0.00 | 0.00 | 0.00 | 48 | 1011.3 |
| 20260505181544 | 5 | 323 | 3.2 | 14.5 | 0.00 | 0.00 | 0.00 | 48 | 1011.2 |
| 20260505181031 | 5 | 284 | 3.2 | 14.5 | 0.00 | 0.00 | 0.00 | 49 | 1011.4 |
| 20260505180532 | 5 | 295 | 4.8 | 17.7 | 0.00 | 0.00 | 0.00 | 48 | 1011.3 |
| 20260505180047 | 5 | 265 | 6.4 | 17.7 | 0.00 | 0.00 | 0.00 | 48 | 1011.2 |
| 20260505175529 | 5 | 258 | 6.4 | 12.9 | 0.00 | 0.00 | 0.00 | 49 | 1011.2 |
| 20260505175028 | 5 | 264 | 1.6 | 12.9 | 0.00 | 0.00 | 0.00 | 50 | 1011.2 |
| 20260505174543 | 5 | 357 | 6.4 | 14.5 | 0.00 | 0.00 | 0.00 | 49 | 1011.1 |
| 20260505174027 | 5 | 296 | 3.2 | 14.5 | 0.00 | 0.00 | 0.00 | 49 | 1011.1 |
| 20260505173525 | 5 | 290 | 3.2 | 14.5 | 0.00 | 0.00 | 0.00 | 51 | 1011.2 |
| 20260505173047 | 4 | 307 | 4.8 | 16.1 | 0.00 | 0.00 | 0.00 | 51 | 1011.2 |
| 20260505172524 | 4 | 297 | 4.8 | 19.3 | 0.00 | 0.00 | 0.00 | 52 | 1011.2 |
| 20260505172027 | 4 | 302 | 4.8 | 19.3 | 0.00 | 0.00 | 0.00 | 51 | 1011.2 |
| 20260505171547 | 4 | 253 | 4.8 | 19.3 | 0.00 | 0.00 | 0.00 | 50 | 1011.1 |
| 20260505171028 | 4 | 297 | 4.8 | 19.3 | 0.00 | 0.00 | 0.00 | 51 | 1011.2 |
| 20260505170528 | 4 | 311 | 3.2 | 14.5 | 0.00 | 0.00 | 0.00 | 50 | 1011.2 |
| 20260505170047 | 4 | 302 | 4.8 | 24.1 | 0.00 | 0.00 | 0.00 | 51 | 1011.1 |
| 20260505165525 | 4 | 308 | 8.0 | 24.1 | 0.00 | 0.00 | 0.00 | 51 | 1011.1 |
| 20260505165025 | 5 | 316 | 4.8 | 11.3 | 0.00 | 0.00 | 0.00 | 51 | 1011.0 |
| 20260505164548 | 5 | 292 | 3.2 | 19.3 | 0.00 | 0.00 | 0.00 | 52 | 1011.0 |
| 20260505164028 | 4 | 172 | 4.8 | 22.5 | 0.00 | 0.00 | 0.00 | 52 | 1011.0 |
| 20260505163528 | 4 | 278 | 8.0 | 22.5 | 0.00 | 0.00 | 0.00 | 50 | 1011.0 |
| 20260505163049 | 5 | 332 | 4.8 | 12.9 | 0.00 | 0.00 | 0.00 | 52 | 1011.0 |
| 20260505162528 | 5 | 65 | 4.8 | 19.3 | 0.00 | 0.00 | 0.00 | 53 | 1010.8 |
| 20260505162028 | 4 | 87 | 3.2 | 19.3 | 0.00 | 0.00 | 0.00 | 54 | 1010.8 |
| 20260505161543 | 3 | 234 | 8.0 | 17.7 | 0.00 | 0.00 | 0.00 | 55 | 1011.0 |
| 20260505161031 | 3 | 262 | 4.8 | 17.7 | 0.00 | 0.00 | 0.00 | 55 | 1010.9 |
| 20260505160526 | 3 | 286 | 6.4 | 17.7 | 0.00 | 0.00 | 0.00 | 56 | 1010.8 |
| 20260505153051 | 3 | 349 | 4.8 | 17.7 | 0.00 | 0.00 | 0.00 | 56 | 1010.8 |
| 20260505152528 | 3 | 292 | 6.4 | 16.1 | 0.00 | 0.00 | 0.00 | 55 | 1010.8 |
| 20260505152030 | 3 | 294 | 4.8 | 16.1 | 0.00 | 0.00 | 0.00 | 56 | 1010.6 |
| 20260505151547 | 3 | 32 | 6.4 | 16.1 | 0.00 | 0.00 | 0.00 | 55 | 1010.7 |
| 20260505151028 | 3 | 325 | 4.8 | 12.9 | 0.00 | 0.00 | 0.00 | 56 | 1010.6 |
| 20260505150529 | 3 | 300 | 4.8 | 16.1 | 0.00 | 0.00 | 0.00 | 55 | 1010.5 |
| 20260505140530 | 3 | 6 | 3.2 | 11.3 | 0.00 | 0.00 | 0.00 | 55 | 1010.2 |
| 20260505125028 | 1 | 299 | 3.2 | 11.3 | 0.00 | 0.00 | 0.00 | 58 | 1009.7 |
| 20260505124543 | 1 | 267 | 3.2 | 12.9 | 0.00 | 0.00 | 0.00 | 58 | 1009.5 |
| 20260505124027 | 1 | 86 | 3.2 | 12.9 | 0.00 | 0.00 | 0.00 | 58 | 1009.5 |
| 20260505123527 | 1 | 310 | 3.2 | 12.9 | 0.00 | 0.00 | 0.00 | 58 | 1009.4 |
| 20260505123045 | 1 | 317 | 1.6 | 14.5 | 0.00 | 0.00 | 0.00 | 59 | 1009.5 |
| 20260505122528 | 1 | 340 | 3.2 | 14.5 | 0.00 | 0.00 | 0.00 | 58 | 1009.3 |
| 20260505122028 | 1 | 16 | 1.6 | 9.7 | 0.00 | 0.00 | 0.00 | 59 | 1009.3 |
| 20260505121548 | 1 | 290 | 1.6 | 6.4 | 0.00 | 0.00 | 0.00 | 59 | 1009.2 |
| 20260505121028 | 1 | 288 | 0.0 | 3.2 | 0.00 | 0.00 | 0.00 | 59 | 1009.1 |
| 20260505120531 | 1 | 0 | 1.6 | 6.4 | 0.00 | 0.00 | 0.00 | 59 | 1009.0 |
| 20260505120040 | 1 | 273 | 1.6 | 6.4 | 0.00 | 0.00 | 0.00 | 59 | 1009.0 |
| 20260505115528 | 1 | 320 | 1.6 | 9.7 | 0.00 | 0.00 | 0.00 | 59 | 1008.9 |
| 20260505115028 | 0 | 294 | 3.2 | 9.7 | 0.00 | 0.00 | 0.00 | 58 | 1008.8 |
| 20260505114541 | 0 | 0 | 1.6 | 11.3 | 0.00 | 0.00 | 0.00 | 59 | 1008.7 |
| 20260505114028 | 0 | 294 | 3.2 | 11.3 | 0.00 | 0.00 | 0.00 | 59 | 1008.7 |
| 20260505113527 | 0 | 231 | 0.0 | 9.7 | 0.00 | 0.00 | 0.00 | 59 | 1008.6 |
| 20260505113052 | 0 | 290 | 1.6 | 9.7 | 0.00 | 0.00 | 0.00 | 59 | 1008.6 |
| 20260505112527 | 0 | 297 | 1.6 | 9.7 | 0.00 | 0.00 | 0.00 | 59 | 1008.5 |
| 20260505112028 | 0 | 270 | 1.6 | 9.7 | 0.00 | 0.00 | 0.00 | 59 | 1008.4 |
| 20260505111548 | 0 | 0 | 1.6 | 9.7 | 0.00 | 0.00 | 0.00 | 59 | 1008.5 |
| 20260505111029 | 0 | 297 | 1.6 | 8.0 | 0.00 | 0.00 | 0.00 | 58 | 1008.4 |
| 20260505110529 | 0 | 278 | 0.0 | 6.4 | 0.00 | 0.00 | 0.00 | 59 | 1008.3 |
| 20260505102029 | 0 | 292 | 0.0 | 6.4 | 0.00 | 0.00 | 0.00 | 59 | 1008.4 |
| 20260505101544 | 0 | 332 | 0.0 | 9.7 | 0.00 | 0.00 | 0.00 | 59 | 1008.3 |
| 20260505101029 | 0 | 321 | 1.6 | 9.7 | 0.00 | 0.00 | 0.00 | 59 | 1008.3 |
| 20260505100529 | 0 | 328 | 1.6 | 9.7 | 0.00 | 0.00 | 0.00 | 59 | 1008.4 |
| 20260505100041 | 0 | 298 | 1.6 | 9.7 | 0.00 | 0.00 | 0.00 | 59 | 1008.4 |
| 20260505095528 | 0 | 32 | 1.6 | 8.0 | 0.00 | 0.00 | 0.00 | 59 | 1008.3 |
| 20260505095027 | 0 | 330 | 1.6 | 8.0 | 0.00 | 0.00 | 0.00 | 59 | 1008.3 |
| 20260505094557 | 0 | 289 | 3.2 | 9.7 | 0.00 | 0.00 | 0.00 | 59 | 1008.3 |
| 20260505094027 | 0 | 313 | 1.6 | 9.7 | 0.00 | 0.00 | 0.00 | 59 | 1008.2 |
| 20260505093530 | 0 | 317 | 1.6 | 9.7 | 0.00 | 0.00 | 0.00 | 59 | 1008.3 |
| 20260505093217 | 0 | 262 | 1.6 | 8.0 | 0.00 | 0.00 | 0.00 | 59 | 1008.3 |
| 20260505092527 | 0 | 214 | 1.6 | 11.3 | 0.00 | 0.00 | 0.00 | 58 | 1008.3 |
| 20260505092026 | 0 | 285 | 3.2 | 11.3 | 0.00 | 0.00 | 0.00 | 59 | 1008.3 |
| 20260505091542 | 0 | 316 | 1.6 | 8.0 | 0.00 | 0.00 | 0.00 | 59 | 1008.2 |
| 20260505091029 | 0 | 271 | 0.0 | 8.0 | 0.00 | 0.00 | 0.00 | 59 | 1008.2 |
| 20260505090528 | 0 | 287 | 1.6 | 9.7 | 0.00 | 0.00 | 0.00 | 59 | 1008.2 |
| 20260505090057 | 0 | 324 | 3.2 | 9.7 | 0.00 | 0.00 | 0.00 | 59 | 1008.0 |
| 20260505085528 | 0 | 281 | 1.6 | 11.3 | 0.00 | 0.00 | 0.00 | 58 | 1008.0 |
| 20260505085030 | 1 | 291 | 1.6 | 11.3 | 0.00 | 0.00 | 0.00 | 57 | 1008.0 |
| 20260505084548 | 1 | 281 | 3.2 | 11.3 | 0.00 | 0.00 | 0.00 | 57 | 1008.0 |
| 20260505084027 | 1 | 0 | 1.6 | 12.9 | 0.00 | 0.00 | 0.00 | 57 | 1007.9 |
| 20260505083531 | 1 | 319 | 3.2 | 12.9 | 0.00 | 0.00 | 0.00 | 57 | 1007.7 |
| 20260505083102 | 1 | 352 | 0.0 | 6.4 | 0.00 | 0.00 | 0.00 | 58 | 1007.8 |
| 20260505082527 | 1 | 276 | 1.6 | 11.3 | 0.00 | 0.00 | 0.00 | 58 | 1007.6 |
| 20260505082027 | 1 | 303 | 3.2 | 11.3 | 0.00 | 0.00 | 0.00 | 57 | 1007.6 |
| 20260505081547 | 1 | 0 | 1.6 | 11.3 | 0.00 | 0.00 | 0.00 | 57 | 1007.6 |
| 20260505081028 | 1 | 273 | 3.2 | 11.3 | 0.00 | 0.00 | 0.00 | 57 | 1007.6 |
| 20260505080527 | 1 | 305 | 4.8 | 11.3 | 0.00 | 0.00 | 0.00 | 58 | 1007.7 |
| 20260505080046 | 1 | 256 | 1.6 | 9.7 | 0.00 | 0.00 | 0.00 | 59 | 1007.6 |
| 20260505075525 | 1 | 271 | 1.6 | 8.0 | 0.00 | 0.00 | 0.00 | 60 | 1007.6 |
| 20260505075027 | 1 | 307 | 1.6 | 8.0 | 0.00 | 0.00 | 0.00 | 60 | 1007.5 |
| 20260505074542 | 1 | 290 | 0.0 | 8.0 | 0.00 | 0.00 | 0.00 | 61 | 1007.6 |
| 20260505074027 | 1 | 268 | 3.2 | 8.0 | 0.00 | 0.00 | 0.00 | 61 | 1007.5 |
| 20260505073526 | 1 | 256 | 0.0 | 9.7 | 0.00 | 0.00 | 0.00 | 61 | 1007.5 |
| 20260505073050 | 2 | 0 | 3.2 | 9.7 | 0.00 | 0.00 | 0.00 | 60 | 1007.5 |
| 20260505072527 | 2 | 297 | 1.6 | 9.7 | 0.00 | 0.00 | 0.00 | 59 | 1007.5 |
| 20260505072027 | 2 | 280 | 1.6 | 6.4 | 0.00 | 0.00 | 0.00 | 59 | 1007.5 |
| 20260505071545 | 2 | 287 | 1.6 | 9.7 | 0.00 | 0.00 | 0.00 | 60 | 1007.4 |
| 20260505071028 | 2 | 297 | 1.6 | 9.7 | 0.00 | 0.00 | 0.00 | 60 | 1007.4 |
| 20260505070528 | 2 | 303 | 1.6 | 9.7 | 0.00 | 0.00 | 0.00 | 61 | 1007.3 |
| 20260505070100 | 2 | 310 | 3.2 | 11.3 | 0.00 | 0.00 | 0.00 | 61 | 1007.4 |
| 20260505065527 | 2 | 313 | 1.6 | 11.3 | 0.00 | 0.00 | 0.00 | 61 | 1007.4 |
| 20260505065027 | 2 | 259 | 3.2 | 12.9 | 0.00 | 0.00 | 0.00 | 61 | 1007.3 |
| 20260505064554 | 2 | 303 | 3.2 | 12.9 | 0.00 | 0.00 | 0.00 | 62 | 1007.4 |
| 20260505064027 | 2 | 248 | 1.6 | 9.7 | 0.00 | 0.00 | 0.00 | 63 | 1007.4 |
| 20260505063527 | 2 | 81 | 1.6 | 9.7 | 0.00 | 0.00 | 0.00 | 64 | 1007.3 |
| 20260505063044 | 2 | 286 | 0.0 | 11.3 | 0.00 | 0.00 | 0.00 | 63 | 1007.3 |
| 20260505062527 | 2 | 260 | 1.6 | 11.3 | 0.00 | 0.00 | 0.00 | 63 | 1007.3 |
| 20260505062027 | 2 | 269 | 3.2 | 11.3 | 0.00 | 0.00 | 0.00 | 62 | 1007.3 |
| 20260505061608 | 3 | 265 | 1.6 | 12.9 | 0.00 | 0.00 | 0.00 | 62 | 1007.2 |
| 20260505061029 | 3 | 269 | 3.2 | 12.9 | 0.00 | 0.00 | 0.00 | 62 | 1007.0 |
| 20260505060527 | 3 | 288 | 3.2 | 8.0 | 0.00 | 0.00 | 0.00 | 62 | 1007.2 |
| 20260505060048 | 3 | 303 | 1.6 | 12.9 | 0.00 | 0.00 | 0.00 | 62 | 1007.2 |
| 20260505055527 | 3 | 264 | 4.8 | 16.1 | 0.00 | 0.00 | 0.00 | 61 | 1007.3 |
| 20260505055027 | 3 | 346 | 3.2 | 16.1 | 0.00 | 0.00 | 0.00 | 61 | 1007.1 |
| 20260505054547 | 3 | 258 | 3.2 | 16.1 | 0.00 | 0.00 | 0.00 | 61 | 1007.1 |
| 20260505054027 | 3 | 308 | 4.8 | 12.9 | 0.00 | 0.00 | 0.00 | 61 | 1007.0 |
| 20260505053530 | 3 | 300 | 3.2 | 8.0 | 0.00 | 0.00 | 0.00 | 61 | 1006.9 |
| 20260505053042 | 3 | 274 | 1.6 | 8.0 | 0.00 | 0.00 | 0.00 | 62 | 1006.8 |
| 20260505052529 | 3 | 259 | 1.6 | 8.0 | 0.00 | 0.00 | 0.00 | 62 | 1006.8 |
| 20260505052029 | 3 | 285 | 3.2 | 17.7 | 0.00 | 0.00 | 0.00 | 62 | 1006.8 |
| 20260505051538 | 3 | 298 | 1.6 | 17.7 | 0.00 | 0.00 | 0.00 | 62 | 1006.7 |
| 20260505051030 | 3 | 261 | 3.2 | 11.3 | 0.00 | 0.00 | 0.00 | 62 | 1006.6 |
| 20260505050529 | 3 | 0 | 1.6 | 9.7 | 0.00 | 0.00 | 0.00 | 63 | 1006.6 |
| 20260505041548 | 4 | 297 | 1.6 | 8.0 | 0.00 | 0.00 | 0.00 | 61 | 1006.5 |
| 20260505041029 | 4 | 352 | 3.2 | 9.7 | 0.00 | 0.00 | 0.00 | 61 | 1006.6 |
| 20260505040532 | 4 | 299 | 1.6 | 12.9 | 0.00 | 0.00 | 0.00 | 60 | 1006.7 |
| 20260505040059 | 4 | 316 | 3.2 | 12.9 | 0.00 | 0.00 | 0.00 | 60 | 1006.6 |
| 20260505035533 | 4 | 301 | 3.2 | 12.9 | 0.00 | 0.00 | 0.00 | 59 | 1006.6 |
| 20260505035029 | 5 | 302 | 3.2 | 12.9 | 0.00 | 0.00 | 0.00 | 58 | 1006.6 |
| 20260505034544 | 5 | 79 | 4.8 | 17.7 | 0.00 | 0.00 | 0.00 | 58 | 1006.5 |
| 20260505034029 | 5 | 311 | 3.2 | 17.7 | 0.00 | 0.00 | 0.00 | 57 | 1006.5 |
| 20260505033529 | 5 | 327 | 4.8 | 17.7 | 0.00 | 0.00 | 0.00 | 57 | 1006.5 |
| 20260505033041 | 5 | 250 | 4.8 | 14.5 | 0.00 | 0.00 | 0.00 | 56 | 1006.5 |
| 20260505032529 | 5 | 293 | 4.8 | 20.9 | 0.00 | 0.00 | 0.00 | 55 | 1006.4 |
| 20260505032033 | 5 | 300 | 3.2 | 20.9 | 0.00 | 0.00 | 0.00 | 55 | 1006.4 |
| 20260505031549 | 5 | 285 | 8.0 | 20.9 | 0.00 | 0.00 | 0.00 | 54 | 1006.5 |
| 20260505031030 | 5 | 295 | 6.4 | 16.1 | 0.00 | 0.00 | 0.00 | 54 | 1006.5 |
| 20260505030529 | 5 | 289 | 4.8 | 14.5 | 0.00 | 0.00 | 0.00 | 54 | 1006.4 |
| 20260505030047 | 5 | 318 | 4.8 | 14.5 | 0.00 | 0.00 | 0.00 | 54 | 1006.4 |
| 20260505025532 | 5 | 236 | 3.2 | 9.7 | 0.00 | 0.00 | 0.00 | 54 | 1006.3 |
| 20260505025033 | 5 | 297 | 3.2 | 12.9 | 0.00 | 0.00 | 0.00 | 55 | 1006.2 |
| 20260505024545 | 6 | 302 | 3.2 | 12.9 | 0.00 | 0.00 | 0.00 | 54 | 1006.1 |
| 20260505024029 | 6 | 340 | 3.2 | 14.5 | 0.00 | 0.00 | 0.00 | 54 | 1006.1 |
| 20260505023529 | 6 | 276 | 4.8 | 14.5 | 0.00 | 0.00 | 0.00 | 53 | 1006.1 |
| 20260505023047 | 6 | 279 | 3.2 | 14.5 | 0.00 | 0.00 | 0.00 | 53 | 1006.0 |
| 20260505022529 | 6 | 317 | 4.8 | 11.3 | 0.00 | 0.00 | 0.00 | 53 | 1006.0 |
| 20260505022029 | 6 | 274 | 3.2 | 11.3 | 0.00 | 0.00 | 0.00 | 53 | 1006.0 |
| 20260505021543 | 6 | 288 | 1.6 | 11.3 | 0.00 | 0.00 | 0.00 | 53 | 1005.8 |
| 20260505021032 | 6 | 233 | 4.8 | 14.5 | 0.00 | 0.00 | 0.00 | 53 | 1005.7 |
| 20260505020529 | 6 | 304 | 3.2 | 14.5 | 0.00 | 0.00 | 0.00 | 52 | 1005.7 |
| 20260505020042 | 6 | 261 | 3.2 | 14.5 | 0.00 | 0.00 | 0.00 | 53 | 1005.6 |
| 20260505015529 | 6 | 314 | 4.8 | 14.5 | 0.00 | 0.00 | 0.00 | 53 | 1005.5 |
| 20260505015031 | 6 | 314 | 4.8 | 9.7 | 0.00 | 0.00 | 0.00 | 53 | 1005.4 |
| 20260505014549 | 6 | 278 | 1.6 | 14.5 | 0.00 | 0.00 | 0.00 | 53 | 1005.4 |
| 20260505014031 | 6 | 234 | 3.2 | 14.5 | 0.00 | 0.00 | 0.00 | 53 | 1005.3 |
| 20260505013528 | 6 | 309 | 3.2 | 11.3 | 0.00 | 0.00 | 0.00 | 52 | 1005.3 |
| 20260505013045 | 6 | 325 | 4.8 | 17.7 | 0.00 | 0.00 | 0.00 | 52 | 1005.3 |
| 20260505012529 | 6 | 295 | 4.8 | 17.7 | 0.00 | 0.00 | 0.00 | 52 | 1005.2 |
| 20260505012029 | 6 | 264 | 4.8 | 17.7 | 0.00 | 0.00 | 0.00 | 51 | 1005.2 |
| 20260505011548 | 6 | 321 | 4.8 | 12.9 | 0.00 | 0.00 | 0.00 | 51 | 1005.1 |
| 20260505011029 | 6 | 259 | 3.2 | 12.9 | 0.00 | 0.00 | 0.00 | 51 | 1005.0 |
| 20260505010529 | 6 | 246 | 1.6 | 12.9 | 0.00 | 0.00 | 0.00 | 50 | 1004.9 |
| 20260505010056 | 6 | 302 | 3.2 | 12.9 | 0.00 | 0.00 | 0.00 | 50 | 1004.9 |
| 20260505005529 | 6 | 327 | 4.8 | 12.9 | 0.00 | 0.00 | 0.00 | 49 | 1004.9 |
| 20260505005029 | 6 | 345 | 3.2 | 14.5 | 0.00 | 0.00 | 0.00 | 50 | 1005.0 |
| 20260505004543 | 6 | 343 | 4.8 | 14.5 | 0.00 | 0.00 | 0.00 | 49 | 1004.9 |
| 20260505004028 | 6 | 305 | 3.2 | 17.7 | 0.00 | 0.00 | 0.00 | 48 | 1004.8 |
| 20260505003528 | 7 | 351 | 1.6 | 17.7 | 0.00 | 0.00 | 0.00 | 47 | 1004.8 |
| 20260505003044 | 7 | 226 | 6.4 | 17.7 | 0.00 | 0.00 | 0.00 | 46 | 1004.7 |
| 20260505002529 | 7 | 264 | 1.6 | 12.9 | 0.00 | 0.00 | 0.00 | 47 | 1004.7 |
| 20260505002030 | 7 | 264 | 4.8 | 14.5 | 0.00 | 0.00 | 0.00 | 46 | 1004.7 |
| 20260505001545 | 7 | 308 | 4.8 | 14.5 | 0.00 | 0.00 | 0.00 | 45 | 1004.6 |
| 20260505001029 | 7 | 271 | 6.4 | 14.5 | 0.00 | 0.00 | 0.00 | 45 | 1004.5 |
| 20260505000528 | 7 | 264 | 1.6 | 14.5 | 0.00 | 0.00 | 0.00 | 45 | 1004.6 |
| 20260505000054 | 7 | 278 | 4.8 | 14.5 | 0.00 | 0.00 | 0.00 | 44 | 1004.5 |
| 20260504235529 | 7 | 278 | 3.2 | 11.3 | 0.00 | 0.00 | 0.00 | 44 | 1004.5 |
| 20260504235029 | 7 | 281 | 3.2 | 11.3 | 0.00 | 0.00 | 0.00 | 44 | 1004.4 |
| 20260504234543 | 7 | 301 | 3.2 | 12.9 | 0.00 | 0.00 | 0.00 | 43 | 1004.4 |
| 20260504234029 | 7 | 240 | 3.2 | 12.9 | 0.00 | 0.00 | 0.00 | 44 | 1004.4 |
| 20260504233529 | 7 | 286 | 4.8 | 16.1 | 0.00 | 0.00 | 0.00 | 44 | 1004.4 |
| 20260504233041 | 7 | 274 | 6.4 | 16.1 | 0.00 | 0.00 | 0.00 | 43 | 1004.3 |
| 20260504232529 | 7 | 346 | 3.2 | 16.1 | 0.00 | 0.00 | 0.00 | 43 | 1004.3 |
| 20260504232028 | 7 | 247 | 4.8 | 16.1 | 0.00 | 0.00 | 0.00 | 42 | 1004.3 |
| 20260504231550 | 7 | 280 | 4.8 | 20.9 | 0.00 | 0.00 | 0.00 | 42 | 1004.2 |
| 20260504231028 | 7 | 274 | 4.8 | 22.5 | 0.00 | 0.00 | 0.00 | 42 | 1004.3 |
| 20260504230529 | 7 | 241 | 4.8 | 22.5 | 0.00 | 0.00 | 0.00 | 42 | 1004.4 |
| 20260504230048 | 7 | 320 | 4.8 | 20.9 | 0.00 | 0.00 | 0.00 | 41 | 1004.1 |
| 20260504225533 | 7 | 274 | 3.2 | 24.1 | 0.00 | 0.00 | 0.00 | 41 | 1004.2 |
| 20260504225028 | 7 | 263 | 6.4 | 24.1 | 0.00 | 0.00 | 0.00 | 40 | 1004.1 |
| 20260504224545 | 7 | 319 | 4.8 | 19.3 | 0.00 | 0.00 | 0.00 | 41 | 1004.0 |
| 20260504224030 | 7 | 303 | 3.2 | 16.1 | 0.00 | 0.00 | 0.00 | 43 | 1004.0 |
| 20260504223528 | 7 | 306 | 4.8 | 19.3 | 0.00 | 0.00 | 0.00 | 43 | 1004.0 |
| 20260504223053 | 7 | 321 | 4.8 | 22.5 | 0.00 | 0.00 | 0.00 | 43 | 1004.0 |
| 20260504222529 | 7 | 349 | 9.7 | 22.5 | 0.00 | 0.00 | 0.00 | 44 | 1003.9 |
| 20260504222028 | 7 | 281 | 9.7 | 22.5 | 0.00 | 0.00 | 0.00 | 43 | 1003.9 |
| 20260504221549 | 7 | 349 | 6.4 | 27.4 | 0.00 | 0.00 | 0.00 | 45 | 1003.9 |
| 20260504221029 | 7 | 342 | 4.8 | 27.4 | 0.00 | 0.00 | 0.00 | 46 | 1003.9 |
| 20260504220529 | 7 | 259 | 6.4 | 19.3 | 0.00 | 0.00 | 0.00 | 46 | 1003.8 |
| 20260504220056 | 7 | 314 | 4.8 | 19.3 | 0.00 | 0.00 | 0.00 | 46 | 1003.8 |
| 20260504215529 | 7 | 292 | 6.4 | 19.3 | 0.00 | 0.00 | 0.00 | 46 | 1003.8 |
| 20260504215029 | 7 | 17 | 3.2 | 19.3 | 0.00 | 0.00 | 0.00 | 46 | 1003.5 |
| 20260504214546 | 7 | 275 | 6.4 | 16.1 | 0.00 | 0.00 | 0.00 | 46 | 1003.5 |
| 20260504214030 | 7 | 322 | 6.4 | 24.1 | 0.00 | 0.00 | 0.00 | 47 | 1003.6 |
| 20260504213529 | 7 | 337 | 8.0 | 24.1 | 0.00 | 0.00 | 0.00 | 46 | 1003.5 |
| 20260504213058 | 7 | 293 | 8.0 | 22.5 | 0.00 | 0.00 | 0.00 | 46 | 1003.6 |